Bradshaw AFB, HI

8:03 AM HST on February 25, 2018 (GMT -1000)
Bradshaw Army Air Field

Weather History for PHSF - April, 2014

Change the Weather History Date:

Wednesday, April 23, 2014

  Actual Average Record
Temperature  
Mean Temperature 56 °F -  
Max Temperature 68 °F 65 °F 72 °F (2015)
Min Temperature 45 °F 46 °F 41 °F (1999)
Degree Days  
Heating Degree Days 8    
Growing Degree Days 6 (Base 50)    
Moisture  
Dew Point 43 °F    
Average Humidity 62    
Maximum Humidity 85    
Minimum Humidity 38    
Precipitation  
Precipitation 0.00 in - - ()
Sea Level Pressure  
Sea Level Pressure 30.09 in    
Wind  
Wind Speed 6 mph (SSE)    
Max Wind Speed 12 mph    
Max Gust Speed 24 mph    
Visibility 10 miles    
Events      
Averages and records for this station are not official NWS values.
T = Trace of Precipitation, MM = Missing Value Source: NWS Daily Summary

Daily Weather History Graph

Daily Weather History Graph

Search for Another Location

Airport or City:

Trip Planner

Search our weather history database for the weather conditions in past years. The results will help you decide how hot, cold, wet, or windy it might be!

Date:

Astronomy

Apr. 23, 2014 Rise Set
Actual Time 5:58 AM HST 6:42 PM HST
Civil Twilight 5:35 AM HST 7:05 PM HST
Nautical Twilight 5:08 AM HST 7:32 PM HST
Astronomical Twilight 4:41 AM HST 7:59 PM HST
Moon 1:50 AM HST (4/23) 1:47 PM HST (4/23)
Length of Visible Light 13h 29m
Length of Day
12h 44m
Waning Crescent, 32% of the Moon is Illuminated
Apr 23
Waning Crescent
Apr 28
New
May 6
First Quarter
May 14
Full
May 21
Last Quarter

Hourly Weather History & Observations

Time (HST) Temp. Windchill Dew Point Humidity Pressure Visibility Wind Dir Wind Speed Gust Speed Precip Events Conditions
12:56 AM 48.7 °F - 38.7 °F 68% 30.02 in 11.0 mi WSW 3.5 mph - N/A   Scattered Clouds
1:56 AM 47.5 °F - 37.9 °F 69% 29.98 in 11.0 mi NW 2.3 mph - N/A   Mostly Cloudy
2:56 AM 46.6 °F - 35.1 °F 64% 29.97 in 11.0 mi NNE 2.3 mph - N/A   Clear
3:56 AM 50.4 °F - 30.4 °F 46% 29.96 in 12.0 mi ESE 3.5 mph - N/A   Clear
4:56 AM 45.7 °F 42.7 °F 27.7 °F 49% 29.99 in 11.0 mi ESE 5.8 mph - N/A   Clear
5:56 AM 48.2 °F - 24.3 °F 39% 30.03 in 12.0 mi ESE 8.1 mph - N/A   Clear
6:56 AM 50.2 °F - 31.6 °F 49% 30.06 in 8.0 mi ESE 9.2 mph - N/A   Clear
7:56 AM 59.7 °F - 38.7 °F 46% 30.04 in 10.0 mi ESE 2.3 mph - N/A   Clear
8:56 AM 64.0 °F - 40.8 °F 43% 30.05 in 10.0 mi East 2.3 mph - N/A   Clear
9:56 AM 65.1 °F - 43.2 °F 45% 30.06 in 11.0 mi West 8.1 mph - N/A   Clear
10:56 AM 65.1 °F - 44.8 °F 48% 30.05 in 12.0 mi West 10.4 mph 16.1 mph N/A   Partly Cloudy
11:56 AM 66.4 °F - 47.5 °F 51% 30.04 in 11.0 mi WSW 4.6 mph 12.7 mph N/A   Partly Cloudy
12:00 PM 68.0 °F - 48.2 °F 49% 30.36 in 5.0 mi SW 11.5 mph 21.9 mph N/A   Partly Cloudy
12:56 PM 68.9 °F - 42.3 °F 38% 30.02 in 10.0 mi SSW 3.5 mph 17.3 mph N/A   Partly Cloudy
1:56 PM 68.9 °F - 46.9 °F 45% 29.99 in 9.0 mi South 9.2 mph 16.1 mph N/A   Clear
2:56 PM 67.3 °F - 50.0 °F 54% 29.98 in 6.0 mi SSE 10.4 mph 24.2 mph N/A   Clear
3:56 PM 65.1 °F - 49.1 °F 56% 29.98 in 10.0 mi SE 10.4 mph 20.7 mph N/A   Clear
4:56 PM 62.8 °F - 48.4 °F 59% 30.01 in 10.0 mi South 10.4 mph 15.0 mph N/A   Clear
5:56 PM 57.6 °F - 50.7 °F 78% 30.04 in 7.0 mi SE 9.2 mph 17.3 mph N/A   Scattered Clouds
6:01 PM 57.2 °F - 50.0 °F 77% 30.32 in 11.0 mi SE 11.5 mph 17.3 mph N/A   Mostly Cloudy
6:16 PM 57.2 °F - 50.0 °F 77% 30.32 in 10.0 mi SSE 6.9 mph 18.4 mph N/A   Scattered Clouds
6:41 PM 55.4 °F - 48.2 °F 77% 30.33 in 11.0 mi SE 11.5 mph - N/A   Mostly Cloudy
6:56 PM 54.5 °F - 48.9 °F 81% 30.04 in 12.0 mi SSE 5.8 mph 16.1 mph N/A   Mostly Cloudy
7:01 PM 55.4 °F - 48.2 °F 77% 30.33 in 11.0 mi ESE 5.8 mph - N/A   Scattered Clouds
7:56 PM 53.1 °F - 47.3 °F 81% 30.03 in 11.0 mi SE 2.3 mph - N/A   Partly Cloudy
9:36 PM 51.8 °F - 46.4 °F 82% 30.39 in 12.0 mi SE 6.9 mph - N/A   Scattered Clouds
9:56 PM 51.6 °F - 47.1 °F 85% 30.06 in 11.0 mi ESE 4.6 mph - N/A   Partly Cloudy
10:56 PM 48.9 °F - 44.1 °F 83% 30.06 in 11.0 mi ESE 3.5 mph - N/A   Clear
11:56 PM 46.8 °F - 36.9 °F 68% 30.05 in 12.0 mi ESE 5.8 mph - N/A   Clear